Flag for Germany Weather past 2 weeks in Germering, Bavaria, Germany

Now
41 °F

Passing clouds.


Feels Like: 33 °F
Forecast: 32 / 39 °F
Wind: 14 mph from West

Location: Oberpfaffenhofen

Current Time: Mar 3, 2015 at 12:32:16 PM

Latest Report: Mar 3, 2015 at 11:50 AM


Visibility: N/A

Pressure: 30.21 "Hg

Humidity: 53%

Dew point: 25 °F

Location of GermeringLocation

Historic Weather in Germering — Graph

°F

Germering temperature yesterday

Maximum temperature yesterday: 46 °F (at 6:50 AM)
Minimum temperature yesterday: 36 °F (at 4:20 PM)
Average temperature yesterday: 39 °F

Past Weeks' High & Low Weather Summary

 TemperatureHumidityPressure
High57 °F (Feb 20, 3:20 PM)100% (Feb 16, 11:20 AM)30.66 "Hg (Feb 16, 11:20 AM)
Low21 °F (Feb 27, 6:50 AM)21% (Feb 20, 3:20 PM)29.47 "Hg (Feb 21, 12:50 PM)
Average34 °F79%30.05 "Hg
* Reported Feb 16 11:20 AM — Mar 3 11:20 AM, Germering, Weather by CustomWeather, © 2015

Note: Actual official high and low records may vary slightly from our data, if they occured in-between our weather recording intervals... More about our weather records

Advertising

Germering weather history for previous 24 hours

 ConditionsComfort  
Time TempWeatherWind HumidityBarometerVisibility
11:20 AM
Tue, Mar 3
41 °FSunny.17 mph57%30.21 "Hg10 mi
10:50 AM39 °FSunny.17 mph61%30.21 "Hg10 mi
10:20 AM39 °FSunny.15 mph61%30.21 "Hg10 mi
9:50 AM37 °FSunny.17 mph65%30.21 "Hg10 mi
9:20 AM37 °FSunny.17 mph65%30.21 "Hg10 mi
8:50 AM36 °FSunny.13 mph70%30.21 "Hg10 mi
8:20 AM34 °FSunny.12 mph75%30.18 "Hg10 mi
7:50 AM32 °FSunny.12 mph80%30.18 "Hg10 mi
7:20 AM32 °FSunny.12 mph80%30.18 "Hg10 mi
6:50 AM32 °FClear.10 mph80%30.18 "Hg10 mi
6:50 PM
Mon, Mar 2
36 °FSprinkles. Passing clouds.10 mph93%29.92 "HgN/A
6:20 PM36 °FSprinkles. Passing clouds.13 mph93%29.89 "Hg6 mi
5:50 PM36 °FLight rain. Partly sunny.12 mph93%29.86 "HgN/A
5:20 PM36 °FLight rain. Partly sunny.10 mph93%29.86 "HgN/A
4:50 PM36 °FLight rain. Partly sunny.9 mph93%29.83 "HgN/A
4:20 PM36 °FSprinkles. Partly sunny.12 mph87%29.83 "HgN/A
3:50 PM37 °FRain showers. Partly sunny.17 mph87%29.83 "Hg4 mi
3:20 PM39 °FBroken clouds.16 mph81%29.83 "HgN/A
2:50 PM39 °FBroken clouds.15 mph81%29.83 "HgN/A
2:20 PM37 °FLight rain. Partly sunny.15 mph87%29.80 "HgN/A
1:50 PM39 °FSprinkles. Partly sunny.16 mph81%29.80 "HgN/A
1:20 PM39 °FSprinkles. Partly sunny.18 mph81%29.80 "HgN/A
12:50 PM39 °FPartly sunny.12 mph87%29.77 "HgN/A
12:20 PM39 °FSunny.13 mph81%29.77 "Hg10 mi
Weather by CustomWeather, © 2015

See weather overviewHow to use our weather pages